Tracking 19377 objects as of 11-Dec-2018
HD Live streaming from Space Station
objects crossing your sky now

PICOSAT 6

Track PICOSAT 6 now!
10-day predictions
PICOSAT 6 is classified as:


NORAD ID: 26094
Int'l Code: 2000-004M
Perigee: 732.8 km
Apogee: 782.2 km
Inclination: 100.2 °
Period: 99.8 minutes
Semi major axis: 7128 km
RCS: 0.0137 m2 (small)
Launch date: January 27, 2000
Source: United States (US)
Launch site: AIR FORCE WESTERN TEST RANGE (AFWTR)
aabbcc
Your satellite tracking list
Your tracking list is empty




NASA's NSSDC Master Catalog

Two Line Element Set (TLE):
1 26094U 00004M   18343.89291435  .00000058  00000-0  35263-4 0  9991
2 26094 100.2114 137.4052 0034593 101.9770 258.5295 14.42465955988931
Source of the keplerian elements: AFSPC